{"data":{"norad_id":58415,"intl_designator":"2023-180P","name":"STARLINK-30949","alt_names":[],"object_type":"PAYLOAD","status":"ACTIVE","operator":null,"country":"US","launch_date":"2023-11-22","launch_site_code":"AFETR","launch_vehicle":null,"mission":null,"orbit_class":"UNKNOWN","rcs_meters":null,"size_class":null,"mass_kg":null,"dimensions":null,"purposes":["comms"],"wikipedia_slug":null,"has_3d_model":false,"image_url":null,"decayed_at":null,"tle_current":{"epoch":"2026-05-24T20:29:36.740544Z","epoch_age_seconds":97793,"freshness":"FRESH","line1":"1 58415U 23180P   26144.85389746  .00000780  00000+0  37851-4 0  9996","line2":"2 58415  43.0022 342.4442 0001206 263.3046  96.7669 15.27579014139278","mean_motion":15.27579014,"eccentricity":0.0001206,"inclination_deg":43.0022,"raan_deg":342.4442,"arg_perigee_deg":263.3046,"mean_anomaly_deg":96.7669,"bstar":3.7851e-5,"rev_number":13927,"period_min":94.266809559613,"perigee_km":482.22458908071,"apogee_km":483.8795078792,"semimajor_km":6861.18904848,"source":"CELESTRAK","updated_at":"2026-05-25T13:38:18.619330Z"}}}